Regional Weather Roundup
Issued by NWS

Home | Current Version | Previous Version | Text Only | Print | Product List | Glossary Off
Versions: 1 2 3 4 5 6 7 8 9 10 11 12 13 14 15 16 17 18 19 20 21 22 23 24 25 26 27 28 29 30 31 32 33 34 35 36 37 38 39 40 41 42 43 44 45 46 47 48 49 50

766
ASUS45 KPSR 080210
RWRAZ

ARIZONA HOURLY REGIONAL WEATHER ROUNDUP
NATIONAL WEATHER SERVICE PHOENIX AZ
700 PM MST WED DEC 07 2016

NOTE: FAIR INDICATES FEW OR NO CLOUDS BELOW 12,000 FEET WITH NO
SIGNIFICANT WEATHER AND/OR OBSTRUCTIONS TO VISIBILITY.

AZZ001>003-036-080300-
NORTHWEST ARIZONA

CITY           SKY/WX    TMP DP  RH WIND       PRES   REMARKS
BULLHEAD CITY  MOCLDY    57   0   9 N17       30.12R
KINGMAN        PTCLDY    38   5  25 E8        30.13R WCI  32
$$

AZZ004>008-015-016-018-080300-
NORTH CENTRAL ARIZONA

CITY           SKY/WX    TMP DP  RH WIND       PRES   REMARKS
GRAND CANYON   PTCLDY    24  17  74 NE5       30.13R WCI  18
WILLIAMS       PTCLDY    28  19  69 S3        30.12S
PRESCOTT       CLEAR     36  30  79 S7        30.09S WCI  30
FLAGSTAFF      PTCLDY    30  17  58 CALM      30.12R
PAYSON         PTCLDY    41  32  70 CALM      30.13R
PAGE           PTCLDY    35   3  26 E3        30.18R
$$

AZZ009>014-017-080300-
NORTHEAST ARIZONA

CITY           SKY/WX    TMP DP  RH WIND       PRES   REMARKS
WINSLOW        CLEAR     34  19  54 W6        30.12R WCI  29
SAINT JOHNS    MOCLDY    34  24  67 CALM      30.11R
WINDOW ROCK    CLEAR     29  12  49 E9        30.14R WCI  20
SHOW LOW       MOCLDY    37  27  65 CALM      30.14R
$$

AZZ023-080300-
GREATER PHOENIX AREA

CITY           SKY/WX    TMP DP  RH WIND       PRES   REMARKS
PHOENIX        MOCLDY    59  42  53 SW7       30.04R
BUCKEYE        MOCLDY    54  36  50 N5        30.08R
GLENDALE       MOCLDY    57  43  58 CALM      30.07R
LUKE AFB       MOCLDY    58  43  58 SW5       30.04R
DEER VALLEY    PTCLDY    56  42  59 CALM      30.05R
SCOTTSDALE     MOCLDY    58  44  60 CALM      30.07R
MESA-FALCON    PTCLDY   N/A N/A N/A VRB6      30.01S
MESA-GATEWAY   PTCLDY    57  43  58 N3        30.05S
CHANDLER       MOCLDY    59  43  55 W6        30.05R
$$

AZZ027-028-080300-
SOUTHWEST MARICOPA COUNTY AND PINAL COUNTY

CITY           SKY/WX    TMP DP  RH WIND       PRES   REMARKS
CASA GRANDE    NOT AVBL
$$

AZZ503-504-507>509-080300-
SOUTHEAST ARIZONA

CITY           SKY/WX    TMP DP  RH WIND       PRES   REMARKS
TUCSON         MOCLDY    58  39  49 CALM      30.08R
DAVIS-MONTHAN  PTCLDY    55  38  52 W6        30.07R
RYAN FIELD     CLEAR     55  39  54 CALM        N/A
NOGALES        MOCLDY    51  38  60 SE3       30.09R
SIERRA VISTA   CLOUDY    49  35  59 W5        30.11R
DOUGLAS        CLOUDY    51  32  48 W7        30.09R
SAFFORD        MOCLDY    51  31  46 N6        30.05R
$$

AZZ020-021-025-026-031-080300-
SOUTHWEST ARIZONA

CITY           SKY/WX    TMP DP  RH WIND       PRES   REMARKS
YUMA           MOCLDY    60  20  21 N5        30.08R
$$

CAZ031-033-041-043-047-048-061-080300-
SOUTHERN CALIFORNIA

CITY           SKY/WX    TMP DP  RH WIND       PRES   REMARKS
DOWNTOWN L.A.  CLEAR     57  50  77 W3        30.11R
L.A. AIRPORT   MOCLDY    58  51  78 W8        30.12R
SAN DIEGO      PTCLDY    60  50  69 NW6       30.13R
BURBANK        PTCLDY    57  45  64 CALM      30.11R
ONTARIO        MOCLDY    56  47  71 W9        30.11R
RIVERSIDE      MOCLDY    57  48  72 W6        30.11R
PALM SPRINGS   CLEAR     61  20  20 W7        30.10R
EL CENTRO NAS  MOCLDY    58  27  30 CALM      30.10R
IMPERIAL       CLEAR     57  31  37 CALM      30.08R
BLYTHE         CLEAR     56  12  17 N8        30.09R
NEEDLES        PTCLDY    54   5  14 NW5       30.12R
$$

NVZ020-UTZ003-080300-
SOUTHERN NEVADA-UTAH

CITY           SKY/WX    TMP DP  RH WIND       PRES   REMARKS
LAS VEGAS      MOCLDY    49   2  14 N3        30.17R
SALT LAKE CITY PTCLDY    22  13  68 N5        30.32R WCI  16
$$

NMZ009-TXZ055-080300-
NEW MEXICO-WEST TEXAS

CITY           SKY/WX    TMP DP  RH WIND       PRES   REMARKS
ALBUQUERQUE    CLOUDY    37  17  44 SE5       30.16R WCI  33
EL PASO        CLOUDY    53  34  48 S6        30.07R
$$


........................KEY........................
SKY/WX - SKY CONDITION/WEATHER
TMP    - TEMPERATURE IN FAHRENHEIT
DP     - DEW POINT IN FAHRENHEIT
RH     - RELATIVE HUMIDITY IN PERCENT
WIND   - DIRECTION AND SPEED IN MILES PER HOUR (MPH)
VRB    - VARIABLE WIND DIRECTION
PRES   - MEAN SEA LEVEL PRESSURE IN INCHES OF MERCURY
         F - FALLING PRESSURE   R - RISING PRESSURE
         S - STEADY PRESSURE
VSB    - VISIBILITY IN MILES
HX     - HEAT INDEX IN FAHRENHEIT
WCI    - WIND CHILL INDEX IN FAHRENHEIT
TC     - TEMPERATURE IN CELSIUS WHICH IS ALSO KNOWN AS
         TEMPERATURE IN CENTIGRADE
AFB    - AIR FORCE BASE
         LUKE AFB IS LUKE AIR FORCE BASE
         DAVIS-MONTHAN IS DAVIS-MONTHAN AIR FORCE BASE
NAS    - NAVAL AIR STATION
         EL CENTRO NAS IS EL CENTRO NAVAL AIR STATION
N/A    - NOT AVAILABLE





USA.gov is the U.S. government's official web portal to all federal, state and local government web resources and services.